Wind_Speed
11 12 12 13 13 14 14 14 15 15 15 16 16 16 16 15 16 16 16 17 17 15 10 9 7 6 7 8 8 8 8 10 7 4 6 5 4 3 2 1 1 2 2 2 2 7 5 4 4 5 6 3 1 0 1 2 1 2 2 3 4 2 2 3 5 4 1 0 5 8 10 11 7 7 4 2 5 5 4 7 7 5 6 4 1 3 10 23
10 11 12 13 13 14 15 15 15 16 16 16 16 16 16 16 16 15 15 16 16 16 13 9 8 7 7 8 9 8 8 10 8 7 9 7 5 4 2 1 0 0 1 1 3 6 5 3 5 6 4 2 0 0 1 0 1 2 1 3 4 1 0 1 3 3 2 0 3 6 8 9 6 7 7 6 8 8 8 9 8 9 11 9 5 5 15 23
10 11 11 12 13 14 15 16 16 16 16 16 16 16 16 16 16 15 15 15 15 15 15 11 8 7 6 7 8 8 7 8 7 6 9 9 6 4 2 0 1 1 1 0 3 4 3 3 7 6 3 1 1 0 1 0 1 1 1 5 2 0 2 2 4 4 3 0 1 5 6 7 5 5 7 7 7 9 12 11 9 13 16 13 11 12 18 23
10 10 11 12 12 13 14 15 16 16 17 17 17 16 16 16 16 16 15 15 14 14 15 12 9 8 6 6 7 6 4 5 5 4 9 11 7 4 2 0 1 1 1 1 2 2 2 6 6 2 1 2 1 1 2 1 0 1 2 4 1 1 3 3 4 4 2 1 3 4 5 6 4 4 6 7 7 10 13 14 13 15 17 14 13 16 21 24
10 10 11 11 12 12 13 14 15 16 16 17 17 17 17 17 16 16 15 15 14 13 14 12 10 8 6 5 4 3 2 3 1 5 9 9 7 4 1 1 0 1 1 1 1 3 4 6 3 1 1 2 2 2 2 2 1 2 2 2 1 2 2 1 3 2 3 1 3 5 5 5 4 4 9 9 11 10 6 10 14 15 12 12 16 18 21 23
10 11 11 12 12 12 13 13 14 14 16 16 17 17 17 17 17 17 16 15 14 13 13 11 9 8 5 3 1 3 3 3 1 4 7 6 6 4 2 1 0 0 1 1 2 3 3 3 3 3 1 2 3 3 1 2 1 3 2 1 2 3 2 0 3 2 4 4 5 5 3 3 5 7 9 12 19 10 4 2 6 8 7 11 17 18 19 21
11 12 12 13 13 13 13 13 14 14 15 16 16 17 17 18 17 17 16 16 15 13 12 10 8 6 3 1 2 3 2 4 2 6 7 6 7 5 4 2 1 1 1 2 3 2 1 1 3 3 2 2 3 3 2 1 2 4 3 2 2 3 4 1 2 2 4 5 3 1 1 4 9 6 2 11 22 13 3 4 1 2 5 11 15 17 19 21
12 12 13 14 14 14 14 14 14 14 15 15 16 17 17 18 17 17 17 16 15 14 12 9 6 4 2 2 1 1 2 4 4 7 7 7 7 6 4 3 3 2 2 3 2 3 1 0 1 3 3 1 3 4 2 2 4 6 4 1 2 2 5 2 0 3 4 5 0 1 5 5 6 2 3 15 19 14 7 4 3 3 7 11 14 17 18 19
13 13 14 14 15 15 15 15 15 15 15 15 16 16 17 18 17 17 17 16 16 15 12 8 6 4 3 4 1 3 3 3 5 5 5 6 6 5 5 3 3 4 4 3 3 4 2 1 2 3 3 1 3 4 2 3 3 4 2 0 2 2 3 1 3 3 2 4 3 5 9 4 2 2 9 18 14 10 10 7 6 7 8 11 13 16 17 17
14 14 14 15 15 16 17 17 17 16 16 16 16 17 17 18 18 18 17 18 17 14 11 7 5 3 5 5 2 3 2 3 4 4 4 4 5 5 4 4 4 5 4 3 4 3 1 2 3 2 1 1 3 2 2 3 1 0 1 3 5 4 2 0 3 1 1 3 5 8 10 2 3 2 10 7 1 4 8 8 7 9 11 12 12 14 16 17
15 15 15 16 16 17 17 18 18 19 18 17 17 17 17 18 19 18 18 19 17 13 9 6 4 3 5 5 4 4 2 3 4 3 3 3 4 4 4 5 5 6 5 3 4 4 3 6 8 3 1 1 4 2 1 1 2 1 2 5 6 5 5 4 5 3 2 3 4 6 9 4 3 5 13 3 5 5 8 8 9 11 12 12 13 12 12 15
16 16 17 17 17 17 18 19 19 20 20 20 19 18 17 18 19 19 19 20 16 10 5 4 4 5 5 3 5 5 3 4 3 2 3 4 4 4 4 5 5 6 5 3 4 6 6 9 9 3 1 1 3 1 1 1 1 0 1 5 4 5 6 5 3 2 3 2 3 3 8 8 8 14 15 4 6 4 6 8 9 11 11 10 11 10 10 13
18 18 18 18 19 19 19 19 19 20 21 21 20 20 18 18 19 19 20 19 12 6 2 3 4 7 5 2 5 7 7 6 4 2 2 5 5 4 3 3 4 4 4 4 7 7 8 9 6 2 1 1 1 1 2 2 1 1 1 3 4 6 4 3 2 2 5 2 2 2 8 8 11 18 12 6 6 5 6 9 9 9 9 8 10 9 10 12
18 19 19 20 21 21 21 20 20 21 22 22 21 20 19 19 19 20 20 16 8 2 3 4 5 7 4 3 2 6 9 7 6 4 3 5 5 4 4 3 3 4 4 6 9 8 7 8 5 4 2 1 1 3 2 1 1 1 1 1 2 4 1 4 2 4 5 2 2 3 7 10 8 12 8 6 7 7 8 11 9 9 8 8 9 9 10 12
18 19 20 21 21 22 22 21 21 21 22 23 22 21 20 20 20 20 18 11 4 2 4 4 7 6 2 4 2 4 7 7 7 7 6 6 6 4 4 5 6 7 7 8 9 8 8 7 4 3 2 1 1 3 3 2 2 0 2 3 2 3 2 3 4 4 3 2 3 5 6 11 12 6 4 4 6 8 10 12 10 10 9 9 9 10 10 11
18 19 20 21 21 23 23 22 21 22 23 23 22 21 19 19 20 19 14 6 2 4 4 4 7 5 3 2 2 3 6 7 8 9 8 7 6 5 7 7 7 8 8 8 9 9 7 4 1 1 1 2 3 3 3 4 3 2 3 5 2 3 3 1 4 2 2 2 6 8 6 8 10 3 4 4 5 7 9 12 12 12 11 10 9 9 10 10
18 19 20 20 21 23 23 23 21 22 23 23 22 21 19 19 18 14 8 2 2 4 4 3 6 5 3 1 2 3 5 7 10 10 9 7 6 9 9 6 5 6 7 7 6 4 2 2 0 1 1 1 2 2 4 6 6 2 2 4 4 4 4 3 2 3 2 3 7 10 9 13 15 10 5 6 7 7 9 13 15 12 10 10 9 9 10 11
17 18 19 20 22 23 23 22 21 21 22 22 20 21 19 16 14 8 3 3 3 3 2 2 5 3 3 3 3 2 4 6 9 9 9 8 8 11 8 4 4 5 5 3 2 1 1 0 1 3 2 2 3 4 6 6 5 4 4 5 4 4 6 6 3 3 4 4 7 9 11 17 20 18 17 9 9 9 13 15 17 14 12 11 10 10 11 12
16 17 19 20 21 22 23 21 20 20 21 21 18 17 15 11 8 4 3 4 3 2 1 3 5 2 2 2 1 1 3 6 7 8 9 8 9 10 5 5 5 4 3 2 3 3 1 1 2 4 5 7 8 9 11 6 3 5 5 5 6 6 8 6 1 2 3 4 9 12 13 18 19 18 21 15 7 10 16 17 17 15 12 10 10 11 10 13
15 16 18 19 20 21 22 20 20 18 18 18 15 13 9 4 3 2 1 3 5 4 2 3 5 3 3 1 2 4 4 6 6 6 10 10 10 8 4 4 3 2 4 3 3 2 1 3 6 9 9 8 9 11 8 2 1 3 3 4 7 8 9 6 3 3 2 4 11 14 14 18 20 18 21 18 8 11 17 18 17 15 11 10 12 11 12 14
14 15 17 18 19 21 21 19 19 16 13 11 9 6 2 1 2 3 2 5 7 5 4 3 3 7 7 2 5 7 3 3 4 5 11 11 9 7 5 4 5 5 4 2 2 2 2 6 11 11 6 2 3 5 3 1 2 4 5 5 6 7 9 4 3 3 3 3 9 10 12 17 19 18 20 17 13 17 22 19 18 17 12 10 12 13 13 13
13 14 16 17 19 20 20 19 18 13 9 6 4 1 2 2 4 2 0 5 6 3 4 3 2 8 8 5 7 7 2 3 4 6 11 10 5 5 4 5 7 5 2 3 3 2 4 10 12 4 5 5 3 3 5 6 4 4 3 4 6 5 5 4 3 3 4 4 6 7 10 17 19 19 22 20 15 18 23 19 18 17 13 11 11 12 12 12
12 13 15 16 18 19 19 19 16 10 6 4 2 1 2 3 4 5 3 4 5 2 3 4 4 7 6 5 7 9 6 6 4 6 13 12 4 2 4 7 6 2 4 8 8 5 5 8 6 4 7 7 3 3 6 5 4 6 4 4 7 2 1 5 0 3 4 4 6 9 11 14 16 17 19 17 12 15 19 18 17 16 16 15 10 9 11 13
12 12 13 14 17 18 18 18 11 5 6 4 2 1 3 5 6 5 2 3 4 3 3 5 5 5 5 3 8 12 6 4 3 4 13 14 5 3 5 6 5 3 7 11 10 10 8 3 3 6 5 7 4 5 8 6 5 6 6 8 9 4 4 6 2 2 5 4 3 8 11 10 9 10 10 5 2 9 12 12 15 15 14 13 9 9 12 14
11 11 12 13 16 18 18 15 6 5 7 3 1 1 4 6 6 4 1 3 4 2 1 4 4 5 6 4 7 9 2 2 3 2 11 11 5 4 3 2 4 8 8 8 8 10 9 2 6 6 4 4 5 5 8 8 5 5 8 12 12 7 5 3 3 4 5 4 1 3 10 7 3 5 6 1 2 6 5 6 12 13 9 9 10 11 11 12
10 10 11 12 15 18 16 7 4 7 5 2 2 1 4 5 5 2 1 4 5 2 2 4 4 6 8 4 4 5 0 2 1 3 7 7 3 3 2 3 2 5 4 6 4 5 3 1 2 4 5 6 6 7 7 8 6 5 4 7 9 7 4 2 1 2 4 4 1 2 7 9 3 6 6 3 4 6 4 6 9 10 7 7 9 9 9 11
10 10 10 10 13 15 9 3 6 7 1 1 2 1 3 4 4 2 1 5 6 4 4 1 1 4 6 2 2 4 2 1 3 3 3 3 3 1 3 6 3 1 4 4 3 2 3 4 2 4 6 6 7 7 7 10 6 4 1 1 4 5 4 4 3 4 4 4 2 3 5 11 8 9 11 9 9 9 10 14 11 11 14 9 7 8 10 11
10 9 9 9 11 11 8 6 7 3 1 2 2 2 2 3 4 2 2 6 4 4 4 1 1 2 3 1 1 1 1 1 3 2 1 1 2 1 4 8 4 4 4 4 6 2 3 5 7 8 7 7 7 2 5 12 7 0 2 3 4 4 3 4 3 4 2 4 5 7 8 9 9 7 7 8 11 12 14 17 15 14 16 10 6 9 11 10
10 9 8 8 10 10 9 7 4 2 3 3 2 2 3 3 3 1 1 6 2 3 2 2 3 1 3 2 2 0 1 2 1 0 1 1 1 1 3 4 2 4 3 3 5 1 2 3 4 6 7 6 3 4 1 7 4 3 5 5 6 5 4 3 2 3 1 4 8 9 11 7 10 6 7 2 6 11 12 13 13 11 11 7 5 8 9 8
12 10 9 8 8 8 8 6 5 4 3 3 2 3 5 3 2 2 6 6 1 1 2 2 3 3 5 5 3 1 1 1 1 1 1 1 1 2 1 0 2 3 1 2 4 1 2 1 2 3 4 2 5 5 4 1 3 6 6 4 4 3 3 1 1 0 4 7 7 11 16 12 10 2 9 5 6 10 10 8 9 9 8 7 7 8 8 8
14 12 12 11 8 6 5 4 4 3 3 4 1 4 4 1 1 6 8 3 1 1 3 3 2 4 8 6 3 3 3 1 2 4 3 2 2 2 2 2 2 2 2 4 5 2 2 2 2 1 1 3 5 5 4 4 3 4 4 2 1 1 2 2 1 2 6 7 2 6 12 14 11 4 7 6 6 9 9 8 9 9 8 7 7 7 7 7
15 14 15 14 11 9 6 4 4 4 5 2 2 3 2 1 4 7 3 2 0 3 4 3 2 4 6 3 1 3 3 1 3 5 4 3 4 6 6 5 5 3 4 6 4 1 3 4 3 1 0 3 5 4 4 2 2 3 4 3 2 3 2 3 3 4 6 6 2 2 4 9 14 11 6 5 4 9 9 7 7 7 8 7 5 6 5 5
18 17 18 18 16 14 11 8 7 7 5 1 3 2 2 5 8 5 5 3 3 1 2 2 2 3 4 3 2 2 1 1 4 4 2 2 4 6 6 4 2 2 3 4 3 2 2 1 4 4 2 4 9 8 4 4 7 8 7 6 5 4 2 5 5 3 5 4 3 4 2 6 11 10 11 14 14 13 9 8 8 6 6 3 2 4 4 5
20 19 21 22 20 17 13 9 9 8 4 3 4 2 3 10 8 3 8 9 3 2 3 3 3 3 3 2 2 2 3 3 5 4 3 3 4 6 7 7 5 2 1 2 2 3 5 6 7 9 3 8 14 10 2 5 7 8 5 4 5 4 4 6 5 4 6 4 2 4 3 5 5 2 7 13 14 10 6 7 9 7 5 1 2 1 3 4
21 23 24 25 24 21 16 13 11 9 6 4 4 3 6 12 7 3 7 6 3 1 2 2 3 4 4 2 1 3 4 3 4 4 5 5 5 5 6 8 9 6 2 3 2 3 6 8 4 5 0 7 10 3 3 6 5 3 2 1 4 4 5 4 3 1 3 6 4 5 4 7 4 1 3 3 4 4 4 8 9 9 8 4 3 5 5 5
25 27 26 28 29 27 22 17 13 11 9 5 5 7 11 11 5 3 4 4 4 5 5 1 3 4 5 3 3 4 1 1 3 4 4 5 6 6 3 3 9 12 9 6 2 3 4 4 3 4 2 2 1 3 2 1 2 4 3 4 3 0 3 4 3 2 2 6 7 4 6 10 7 4 6 6 6 4 4 9 11 11 10 7 6 7 7 7
30 28 25 29 33 30 26 22 17 13 7 5 8 10 9 7 3 3 2 2 2 5 6 5 5 6 5 3 4 6 4 2 4 5 4 4 5 6 6 3 6 14 16 9 3 4 4 3 1 3 0 1 2 2 2 2 1 4 4 5 3 2 0 2 3 1 2 7 7 5 10 13 10 5 4 7 8 6 8 12 11 10 9 8 8 8 7 7
32 24 20 28 36 33 27 25 20 12 4 4 13 14 6 4 2 3 3 3 2 3 6 7 5 5 6 5 3 6 7 5 6 6 4 4 5 5 9 5 6 14 20 13 4 3 2 2 2 1 0 3 1 2 2 1 1 1 2 1 1 2 3 3 2 3 6 7 7 12 16 15 11 6 2 6 10 10 12 13 10 10 10 9 10 9 8 8
25 12 9 20 33 33 30 28 20 9 4 6 13 13 6 5 3 3 5 5 3 4 7 8 6 4 5 5 2 5 8 7 7 6 5 6 5 4 9 7 7 12 16 15 8 3 2 4 3 1 2 2 2 4 6 5 3 0 2 2 2 2 2 3 2 2 5 6 8 15 17 14 6 5 4 6 9 11 11 10 11 12 11 10 9 8 8 7
14 3 2 17 33 35 33 27 14 6 7 9 11 9 4 3 4 4 6 6 3 3 6 7 6 6 6 3 1 3 6 6 6 6 5 5 4 4 7 7 4 5 7 10 8 2 3 4 5 1 2 2 4 7 9 9 8 6 5 6 5 2 1 2 2 2 3 5 7 9 13 14 2 7 4 4 6 8 8 7 9 10 11 11 9 8 8 7
7 4 3 23 40 40 32 17 6 6 7 9 11 11 7 3 3 4 3 4 4 2 1 4 6 8 8 5 2 3 4 5 6 6 5 6 6 4 7 9 7 7 5 4 5 4 4 4 6 3 2 5 5 3 3 3 3 6 7 8 9 7 4 3 5 3 1 5 7 5 10 16 4 6 3 3 4 4 6 7 7 8 12 12 10 10 10 8
5 5 6 30 47 43 26 9 5 7 6 8 9 7 5 4 4 5 4 4 4 2 0 2 5 7 8 7 4 4 5 5 6 7 5 6 9 8 7 8 9 10 7 4 4 4 3 2 5 6 5 4 2 2 1 2 2 2 4 5 7 7 7 7 7 3 2 4 5 1 7 14 3 6 2 3 5 4 5 8 7 7 10 11 10 9 8 8
3 3 9 34 52 40 17 6 7 7 7 7 6 5 4 4 4 4 5 6 4 3 3 4 5 7 8 7 4 5 7 6 7 7 4 4 9 10 6 8 10 8 4 3 2 1 2 2 4 5 4 2 1 3 2 0 1 3 6 6 6 7 9 7 4 1 2 5 5 3 7 14 3 6 1 1 4 3 4 6 7 7 7 8 7 7 6 7
2 1 4 26 47 34 12 7 9 11 10 7 8 9 6 4 6 7 7 9 7 5 7 8 7 7 8 6 6 7 8 7 8 8 6 7 6 4 6 11 13 9 5 5 5 5 4 4 4 4 5 5 3 3 3 3 4 5 5 7 9 10 10 4 2 1 4 12 12 6 9 14 5 4 2 3 3 4 5 4 5 6 5 5 5 5 7 7
1 2 2 11 25 19 7 5 6 9 12 12 13 14 10 5 6 9 10 10 8 6 7 7 4 4 6 4 6 10 10 10 10 6 7 9 3 2 2 8 13 12 7 4 6 7 6 5 7 8 9 9 10 10 5 4 6 5 4 9 13 15 17 10 4 6 10 13 12 9 13 15 11 10 9 6 5 6 5 4 5 7 6 5 5 5 7 7
1 2 1 2 8 7 4 3 2 3 9 13 11 11 13 11 6 4 8 11 10 7 4 2 1 2 5 6 7 11 12 13 11 5 5 8 2 1 1 4 8 9 2 2 5 6 3 5 12 15 15 13 15 16 6 6 7 7 7 13 15 18 21 13 7 11 9 4 8 14 18 16 16 21 23 19 15 12 8 6 6 7 7 7 7 8 8 7
2 4 4 4 3 5 4 6 6 4 5 8 7 5 13 16 9 3 6 9 9 8 4 1 2 4 7 10 12 14 15 14 11 10 13 11 4 0 1 2 5 4 2 2 3 4 2 5 13 18 21 20 20 24 16 8 9 10 10 13 16 17 19 16 17 14 5 3 10 18 20 17 16 21 27 28 22 14 10 12 11 9 8 7 8 10 11 10
4 3 5 8 6 6 7 10 13 11 9 8 6 6 12 16 13 9 8 4 2 5 6 5 9 15 17 17 15 13 14 12 11 13 16 14 8 3 1 2 3 3 3 1 1 2 3 7 12 16 20 20 19 24 22 13 10 10 10 12 14 17 20 22 23 16 9 10 16 16 18 19 16 21 28 27 20 14 12 13 12 10 7 6 7 9 11 11
5 3 2 6 7 8 13 18 18 16 15 12 8 8 12 16 17 16 8 2 1 6 10 10 15 20 23 22 16 11 11 11 11 12 12 12 10 6 3 4 2 2 3 4 2 2 3 7 13 16 17 18 18 21 22 16 10 10 11 10 12 18 22 21 19 17 18 21 16 11 17 20 18 23 26 22 18 16 13 14 15 13 13 13 13 14 14 11
4 3 1 5 6 6 11 16 15 13 13 13 11 10 12 17 21 17 9 8 8 8 10 15 21 21 21 21 16 13 15 15 16 16 13 11 9 5 5 7 2 2 2 3 2 2 4 8 12 13 12 15 19 23 24 19 15 15 14 12 17 24 22 17 16 16 17 18 15 13 15 16 18 23 22 20 19 16 14 19 22 19 17 17 17 17 18 16
9 10 7 4 5 5 8 10 11 12 12 12 12 12 14 19 22 18 13 14 17 13 12 20 26 21 15 13 13 17 22 23 24 24 19 12 7 6 6 5 4 3 3 4 2 2 5 7 9 9 10 12 17 22 22 16 12 10 13 19 27 26 18 17 18 15 13 14 16 15 13 14 19 22 20 19 19 17 19 22 21 19 15 13 14 17 18 18
10 11 9 6 3 5 8 8 10 13 12 12 15 18 19 21 22 19 14 11 17 21 19 19 21 16 10 11 18 25 28 27 26 25 18 9 6 6 6 6 7 7 6 5 4 3 5 7 7 8 9 11 16 18 13 8 5 7 15 26 29 23 19 21 21 18 17 15 12 12 13 15 19 19 18 19 18 18 19 18 17 17 14 9 12 17 18 20
Wind_Direction
9 8 9 10 10 11 13 15 16 16 14 13 13 14 15 16 16 16 12 11 12 13 7 356 342 298 268 260 259 269 299 325 318 262 233 230 203 186 205 206 271 311 328 333 192 179 180 197 193 174 172 166 342 350 131 23 11 243 228 238 252 238 219 189 191 190 330 32 162 174 188 203 191 165 169 159 210 223 209 211 220 233 241 236 4 39 152 155
3 2 3 3 3 4 4 6 7 8 7 7 7 7 8 8 9 10 10 8 4 6 7 358 346 325 285 263 262 268 289 315 308 267 247 230 203 191 181 147 255 357 74 333 190 195 224 218 177 170 178 182 17 254 186 21 304 240 212 250 253 234 182 178 204 202 213 264 148 179 195 211 204 155 160 205 210 199 220 221 214 236 233 214 203 165 159 161
355 355 356 358 360 0 360 0 0 1 1 1 2 3 3 3 4 4 4 5 0 359 0 358 348 337 308 275 261 265 293 311 300 261 229 212 201 196 179 41 9 46 92 128 179 203 253 172 159 167 175 186 88 64 212 36 268 222 220 253 251 353 275 214 216 221 209 240 163 183 186 211 217 143 159 215 222 202 220 222 200 223 230 208 179 166 167 170
346 346 349 351 353 354 356 356 355 356 355 355 356 357 359 359 0 0 360 360 358 355 354 353 346 342 325 295 262 256 304 300 277 200 190 193 197 198 200 263 20 19 50 88 137 134 130 133 145 162 181 181 92 266 232 46 343 172 225 269 46 84 270 195 195 219 188 248 241 168 160 212 207 149 186 206 227 230 227 222 209 220 223 196 167 167 174 177
339 338 340 341 344 348 350 351 350 350 349 350 351 352 353 354 355 356 356 355 355 352 350 345 338 343 336 309 258 235 284 278 230 159 174 182 193 191 201 227 27 16 94 209 113 106 125 126 136 152 199 188 151 214 200 75 30 203 216 303 61 175 258 129 146 190 162 201 219 168 174 197 145 176 214 205 227 245 234 221 218 227 221 175 166 171 175 182
336 334 334 336 338 340 343 344 344 344 344 345 346 348 348 350 351 351 352 351 351 348 345 337 331 340 341 327 221 188 233 266 132 172 184 184 198 200 222 261 339 185 157 217 153 136 128 122 191 190 187 181 183 212 133 97 298 250 214 193 218 212 253 57 109 166 174 189 195 186 189 152 163 218 220 215 234 245 60 98 221 242 226 162 164 170 177 187
334 333 332 333 332 334 337 337 337 339 339 340 341 345 345 346 347 347 347 346 346 345 342 331 324 329 330 27 148 151 240 275 243 210 209 202 209 215 241 271 259 227 172 195 171 173 135 124 216 196 184 166 196 203 103 127 223 258 245 184 206 208 237 282 82 177 195 216 210 149 181 184 208 228 204 226 239 240 106 86 95 250 190 159 165 176 185 190
331 329 329 329 328 330 331 329 333 333 333 334 336 340 342 343 343 342 342 342 340 339 337 322 314 318 247 164 160 194 250 255 233 220 216 212 217 223 242 259 243 217 178 186 157 174 191 285 191 191 214 170 187 180 141 217 199 224 244 176 169 210 239 273 346 217 204 232 215 156 226 213 217 262 279 245 246 240 206 149 133 163 167 174 184 187 190 193
328 326 325 325 325 326 326 326 327 327 328 329 331 335 339 340 339 339 337 337 336 332 331 313 296 296 210 160 152 261 243 221 213 209 209 217 221 219 231 239 220 201 181 140 127 168 200 224 175 207 236 94 186 174 163 237 213 213 235 193 219 241 253 274 257 225 205 232 159 220 243 216 186 322 269 251 252 239 205 183 172 174 183 191 195 193 193 195
326 324 322 321 321 320 320 322 323 323 324 323 326 330 335 337 335 335 334 333 333 328 321 294 275 258 192 164 175 251 239 198 205 208 214 221 214 209 219 223 209 199 186 126 133 158 160 185 147 174 254 104 190 167 156 232 338 205 289 295 261 269 283 250 264 235 262 245 186 235 262 234 128 265 259 249 253 207 185 189 191 194 205 201 199 199 197 199
324 322 321 319 317 316 316 317 320 320 319 321 323 325 330 334 331 332 331 331 333 327 310 275 256 217 181 184 216 237 211 198 213 213 213 206 200 203 207 211 208 200 188 130 138 142 129 155 135 123 292 135 173 173 210 234 26 38 308 282 255 262 260 227 247 250 240 238 190 235 270 258 124 229 246 199 109 174 175 191 197 207 217 208 205 202 200 206
323 321 320 318 316 315 313 315 317 317 317 318 319 322 328 330 329 329 329 331 335 327 295 243 232 187 161 199 232 230 215 202 210 210 208 198 189 194 193 196 195 196 197 155 143 140 136 149 146 138 349 160 180 193 192 115 22 27 279 284 260 263 258 211 212 218 205 212 171 215 268 241 192 228 242 147 125 172 180 206 204 212 221 211 210 205 204 207
323 322 321 318 316 314 314 316 318 316 315 314 316 320 325 327 327 326 327 331 334 325 247 205 199 175 167 244 226 221 225 213 214 219 195 183 171 167 163 159 164 180 197 170 144 134 143 153 154 114 79 217 237 109 143 103 338 230 167 296 288 273 258 168 125 159 185 186 146 214 278 253 204 225 232 123 144 172 197 222 212 213 218 213 211 209 211 205
321 320 320 319 317 315 315 318 320 318 314 312 314 318 323 326 324 322 325 329 331 303 204 190 177 165 180 258 218 217 220 214 220 215 183 180 168 143 127 121 130 138 138 142 135 127 142 146 136 115 92 326 70 136 175 142 229 242 181 247 264 268 252 129 140 177 182 155 138 208 270 277 249 226 203 136 170 190 226 232 219 215 209 214 215 212 216 208
318 318 318 317 317 316 315 319 321 320 316 313 314 318 323 323 321 321 321 324 325 238 193 178 174 163 226 257 221 213 211 210 216 210 199 187 175 148 128 126 116 112 111 120 123 118 124 130 133 128 102 5 166 188 234 216 181 185 255 241 189 232 257 136 161 201 212 109 166 209 250 273 276 248 147 130 183 201 240 243 229 221 208 212 215 214 218 213
318 316 315 315 316 314 315 318 320 318 315 314 315 317 320 321 319 317 315 316 271 210 178 177 179 178 277 251 163 201 205 209 211 207 201 188 187 174 143 129 109 102 106 108 111 109 105 105 79 335 141 197 209 223 260 256 219 173 244 262 227 223 269 186 151 191 255 143 190 224 258 276 274 261 115 141 191 203 239 252 243 227 213 212 215 215 215 213
318 316 315 314 314 313 314 316 319 317 314 314 316 316 320 321 314 310 309 289 211 188 178 184 169 183 268 170 167 223 194 197 200 196 193 184 184 172 148 123 95 98 106 106 114 108 68 61 95 242 172 191 213 209 254 262 249 198 197 254 250 231 259 262 170 133 174 212 218 221 241 260 264 268 247 179 178 207 237 251 251 236 214 210 214 215 211 211
318 318 316 315 314 313 313 315 318 315 312 314 318 319 320 316 306 301 273 166 130 149 179 163 159 201 245 176 192 213 157 179 184 181 182 171 165 168 159 131 122 129 118 112 166 181 302 74 218 252 207 196 195 191 227 251 261 258 234 250 267 241 238 248 240 147 155 209 237 224 232 253 261 269 269 236 175 214 248 253 256 248 222 210 212 215 211 211
318 319 319 317 316 314 314 316 317 314 312 312 317 320 318 310 295 267 187 154 147 193 213 175 187 234 272 213 216 154 155 165 169 174 174 162 159 166 160 128 133 151 152 186 191 167 221 196 201 248 226 211 203 206 230 248 276 273 263 263 270 262 254 247 186 135 170 223 244 237 241 255 260 264 269 263 195 214 252 257 259 254 230 215 215 214 210 215
319 321 322 322 319 317 318 320 317 314 313 315 327 331 319 308 296 267 176 201 222 249 317 189 202 262 282 243 137 159 171 165 178 187 178 171 159 153 146 126 132 192 200 204 172 138 240 228 227 239 233 218 210 214 237 294 14 265 258 255 254 258 268 260 127 117 150 242 251 245 249 259 264 264 265 266 249 245 256 252 254 252 231 221 221 215 208 219
319 321 324 325 323 322 325 325 319 314 311 317 339 340 302 186 279 301 323 263 245 249 272 235 221 267 265 227 156 162 155 186 207 190 179 174 161 164 172 165 184 206 202 150 112 120 195 228 239 241 233 195 206 205 204 181 183 235 239 252 257 249 262 269 111 130 153 221 256 253 259 262 261 264 264 258 245 254 260 253 255 256 239 222 220 218 214 220
314 318 325 326 326 328 331 332 323 314 307 308 325 303 159 177 230 223 339 279 268 235 251 261 260 265 257 236 200 168 150 236 217 186 178 166 170 204 172 168 206 210 142 123 152 180 207 237 244 222 107 96 92 148 190 207 200 213 224 251 263 255 270 280 100 119 163 219 266 272 276 271 265 262 262 257 237 243 257 257 260 264 254 236 218 214 215 219
307 315 323 326 327 328 334 336 325 316 319 328 346 145 151 161 173 157 167 275 284 221 206 219 228 245 238 236 206 174 195 227 214 193 175 163 171 209 170 188 209 179 158 188 197 197 212 245 250 110 126 152 137 150 181 195 201 206 205 235 249 241 281 268 104 114 189 222 285 291 281 271 265 258 256 258 246 244 257 261 263 264 258 252 229 206 209 216
303 312 318 324 324 324 333 335 327 328 336 343 9 138 164 159 148 149 196 272 272 239 221 218 221 233 223 211 181 181 207 222 208 192 172 171 162 146 193 198 184 202 215 202 199 220 234 233 107 111 153 178 164 167 185 201 214 210 212 230 247 245 227 247 342 341 237 218 276 292 284 264 243 244 251 259 255 258 264 266 266 260 251 249 236 211 212 220
296 305 313 320 322 324 330 331 330 344 340 350 25 154 159 162 148 134 277 273 247 247 260 214 207 218 200 141 156 173 201 218 212 166 169 182 165 138 183 166 195 227 212 175 192 236 248 188 126 130 146 179 183 195 201 206 220 225 219 226 242 258 246 235 25 338 280 244 201 321 304 287 185 197 241 234 240 260 255 246 263 265 237 216 228 223 215 224
288 296 303 313 323 326 329 329 332 337 339 41 26 154 165 174 163 141 306 272 246 203 148 189 185 186 172 138 145 153 182 241 181 113 163 191 189 158 182 142 211 246 170 142 190 242 249 106 125 148 157 179 206 230 203 185 218 246 219 220 231 242 248 223 154 265 276 278 310 17 304 287 228 194 215 200 231 255 249 238 251 265 246 198 209 217 208 219
278 282 290 307 323 329 334 314 314 330 352 80 2 216 193 189 191 216 281 275 257 167 133 196 202 171 161 147 176 159 208 230 102 116 163 184 180 151 211 189 172 210 155 145 212 223 132 125 140 163 170 186 216 239 186 169 210 246 109 117 175 188 205 195 196 232 272 316 294 198 239 275 268 219 220 226 234 248 259 259 252 248 253 235 198 202 209 215
268 267 281 302 315 323 321 295 304 330 199 326 357 220 209 194 217 258 261 266 271 113 118 157 96 121 122 88 224 156 303 324 124 161 55 88 187 129 225 220 185 166 168 190 220 220 109 160 174 168 179 203 216 247 158 174 202 273 91 87 107 126 150 159 204 245 275 325 274 199 187 266 270 193 203 240 234 238 247 253 252 241 247 246 199 200 212 211
259 254 267 285 298 308 305 290 275 257 277 318 335 208 166 177 227 38 232 255 261 91 80 116 134 127 98 130 217 109 357 335 59 70 56 138 216 55 235 229 139 146 169 231 238 321 61 203 196 167 184 209 185 43 86 193 200 130 127 97 88 88 85 121 230 257 256 273 254 193 166 245 277 168 146 182 213 226 236 241 248 243 244 246 206 204 211 203
254 245 247 263 281 293 297 287 252 249 297 305 267 180 158 179 210 202 231 249 262 73 66 132 172 154 133 154 210 212 205 290 66 94 83 131 124 29 315 230 98 145 169 284 267 271 85 55 294 212 200 175 105 73 26 44 118 139 145 114 102 116 94 116 231 206 260 258 232 196 183 211 274 179 147 161 180 201 215 225 244 250 250 242 212 203 201 193
251 240 232 240 259 274 290 281 239 249 317 302 242 155 162 131 112 222 231 250 325 174 140 169 174 146 161 175 190 167 178 215 145 166 173 151 154 139 176 188 150 161 222 252 249 214 141 177 216 224 127 107 109 94 54 63 122 159 159 148 200 217 148 170 173 150 242 259 216 194 191 201 240 237 159 163 168 195 208 213 229 236 240 234 206 194 192 187
247 238 228 231 241 246 253 253 243 273 304 304 144 155 160 178 224 226 224 43 257 200 164 174 178 175 187 200 211 156 163 189 173 182 176 162 187 187 200 200 163 187 234 223 224 191 193 205 169 99 235 185 159 122 93 102 179 194 173 162 230 264 264 239 219 185 233 254 118 126 180 211 240 251 218 185 193 219 217 214 228 222 226 231 197 182 180 176
236 234 227 226 228 232 244 255 251 260 278 182 161 141 104 224 233 196 164 196 215 170 100 102 125 163 164 169 205 161 148 200 163 180 184 152 202 215 237 249 183 259 254 183 201 209 224 252 143 171 232 196 186 184 185 188 183 189 180 173 207 224 247 254 242 232 256 256 138 132 154 240 260 258 222 209 216 221 204 211 240 232 226 241 152 164 171 175
230 229 224 223 226 231 237 239 232 233 227 159 177 124 148 229 240 150 183 208 208 61 62 77 97 140 171 194 223 176 208 218 149 167 199 161 198 223 227 224 208 252 324 160 212 195 235 268 174 171 173 168 189 207 190 118 156 186 177 169 213 204 207 251 262 269 285 299 207 166 179 245 271 266 201 207 220 222 189 201 231 241 242 307 61 175 186 190
231 229 225 219 219 221 218 218 222 213 185 162 180 168 204 229 233 206 209 194 170 117 76 66 114 155 222 241 247 228 223 222 133 151 198 188 205 215 202 202 191 175 155 198 216 163 238 271 154 135 98 160 178 231 51 96 147 178 102 163 231 210 198 247 298 293 319 313 261 188 214 251 253 157 139 159 223 208 185 211 221 235 234 204 210 230 211 209
231 228 223 214 211 210 206 207 209 194 178 168 184 201 222 234 219 198 209 148 158 148 120 155 154 171 229 215 200 221 196 211 159 165 209 212 233 229 189 200 185 182 189 191 191 175 229 281 99 93 341 132 117 350 53 94 197 153 158 200 203 74 200 227 270 82 94 279 266 216 248 272 274 232 169 169 202 168 181 224 221 228 228 207 219 230 214 216
223 219 214 209 208 205 201 202 195 182 178 178 201 215 230 241 204 159 173 115 132 138 145 204 196 176 213 212 198 186 161 188 178 179 204 197 232 211 183 230 185 187 205 206 218 225 217 272 167 142 169 92 354 326 76 3 15 139 192 201 137 58 308 228 260 282 228 257 271 267 268 276 275 264 148 166 200 193 208 224 220 225 229 223 230 234 227 224
216 211 214 213 205 198 195 193 181 169 157 185 218 230 230 223 190 136 160 141 121 155 179 217 207 172 200 213 196 163 168 188 165 176 208 193 222 180 161 202 190 191 210 210 228 254 189 247 244 122 53 105 103 239 161 80 58 118 269 255 131 210 180 162 211 245 246 250 272 278 279 276 257 241 211 187 192 202 217 220 218 223 223 223 230 232 231 227
211 204 233 211 195 190 188 180 168 162 165 185 220 233 220 209 207 170 187 176 149 177 202 223 218 202 209 198 166 154 181 191 163 177 211 194 215 174 154 187 199 201 205 194 202 226 167 231 240 29 342 98 137 214 194 180 160 109 279 245 281 267 185 178 175 209 242 246 274 282 282 277 236 162 209 209 182 195 212 209 213 219 216 218 222 225 227 224
200 205 250 182 182 185 178 168 157 170 195 200 219 227 208 211 220 212 212 200 185 194 211 221 213 215 219 190 160 186 197 211 185 189 213 194 213 204 173 183 183 191 192 183 208 216 113 228 233 105 336 230 193 199 197 193 177 178 202 189 192 191 65 284 232 183 233 239 253 269 274 274 256 113 168 194 170 192 196 197 211 214 219 221 217 221 226 225
181 253 204 169 174 173 164 158 166 186 201 217 227 230 220 215 221 214 207 204 225 250 185 214 213 221 225 212 217 183 183 221 205 201 221 202 217 225 188 187 168 136 125 162 221 216 159 210 220 191 208 224 225 205 192 226 190 183 194 188 189 178 149 220 232 201 183 236 237 236 266 270 265 98 131 154 149 191 181 191 207 207 219 223 216 221 221 219
186 250 170 166 170 164 157 173 198 186 213 221 225 239 220 213 228 210 177 177 226 251 151 225 221 224 228 220 213 176 180 214 205 207 230 208 215 222 191 182 166 143 135 157 208 209 150 149 216 225 228 227 269 20 40 312 331 222 230 209 192 184 181 205 223 209 166 231 247 232 268 268 259 85 71 141 142 173 182 194 202 198 215 218 213 220 221 222
206 222 155 168 169 161 159 202 191 196 228 227 243 262 219 224 244 219 186 180 198 203 198 220 210 217 231 219 199 185 193 213 202 194 215 228 225 223 182 151 151 146 149 163 170 159 103 120 212 242 273 271 70 87 141 172 133 210 238 215 195 202 204 209 232 241 197 222 220 165 246 265 284 85 98 181 141 179 203 202 205 202 213 220 215 218 223 229
194 166 134 176 175 167 169 201 195 209 220 229 249 241 228 243 239 229 210 189 191 196 205 223 218 217 225 206 203 209 195 207 219 202 208 233 234 206 157 154 161 171 192 186 169 166 179 188 186 215 255 253 233 204 188 172 191 219 227 199 202 212 210 224 309 293 243 236 225 205 240 258 278 85 144 156 148 209 223 214 222 221 215 215 217 224 229 229
151 111 47 192 190 186 195 201 196 213 216 222 234 230 231 247 239 239 234 216 214 212 215 232 226 209 212 192 220 227 207 214 233 220 215 232 245 59 165 180 181 190 201 184 169 173 183 184 178 199 227 229 232 235 214 150 186 224 217 192 198 206 206 210 214 214 235 234 216 218 245 257 279 290 269 233 203 220 216 198 218 233 235 230 226 232 230 223
200 197 110 197 219 232 263 257 222 214 215 221 230 229 229 236 251 250 232 230 231 221 225 284 10 202 217 208 232 238 227 228 233 233 232 230 222 51 227 214 207 207 196 107 166 168 166 193 194 206 221 222 232 244 237 118 161 204 200 193 199 206 206 205 215 223 227 212 207 228 243 256 275 281 277 270 258 247 238 234 225 218 223 225 228 236 231 224
235 220 172 159 221 241 264 277 258 236 222 215 211 213 223 232 247 239 205 221 224 212 218 253 192 212 218 213 228 238 233 229 226 232 242 238 229 49 140 204 239 241 41 35 193 156 140 224 212 216 228 228 235 246 241 186 190 211 198 194 204 209 206 210 224 221 165 122 236 239 243 254 265 268 271 273 269 261 257 261 254 237 225 215 221 235 235 233
232 234 176 173 192 205 212 230 231 226 228 220 207 215 226 230 234 227 215 212 206 201 207 217 217 223 227 222 224 235 235 234 231 233 242 246 240 225 137 193 218 175 133 161 251 166 185 229 222 225 237 237 239 250 249 232 219 224 212 203 206 208 205 211 223 218 182 214 242 247 251 257 258 256 260 267 273 278 277 271 265 258 251 236 232 237 233 225
238 267 216 197 204 190 195 210 217 216 219 220 216 216 225 228 227 227 217 138 131 214 207 222 230 227 231 233 229 232 233 235 241 236 235 242 235 214 213 235 229 120 156 182 205 189 198 228 228 231 243 245 245 252 253 249 247 246 239 223 221 225 219 216 225 223 217 231 247 263 264 263 262 259 261 269 278 284 287 283 278 267 256 257 262 260 254 241
241 272 254 217 229 203 197 209 213 214 217 218 220 215 219 228 231 231 217 185 208 217 193 218 236 232 231 233 230 234 236 236 246 245 231 224 221 207 222 227 187 81 190 202 212 230 218 226 232 236 244 245 244 248 250 251 252 254 257 254 248 247 240 230 231 227 224 238 253 262 267 269 264 262 263 266 271 280 282 276 273 265 258 265 270 267 266 265
275 296 300 260 237 204 200 206 205 213 215 210 217 221 221 228 228 231 232 212 214 219 196 209 229 234 230 223 217 229 234 232 237 241 234 218 199 197 217 208 157 138 189 208 204 199 218 233 238 241 249 243 240 245 247 244 244 251 255 250 246 246 244 237 235 228 221 232 241 244 248 250 253 259 262 261 263 268 267 264 263 260 263 270 266 263 266 267
296 302 304 293 262 194 201 212 205 212 217 208 213 219 221 226 223 224 237 225 215 224 221 213 223 231 227 215 215 224 229 229 232 240 241 227 196 203 212 194 184 191 196 202 204 178 199 227 235 235 247 248 245 250 245 222 217 228 232 239 243 246 247 246 246 240 233 232 237 240 239 242 250 256 258 261 262 259 256 257 258 262 271 271 257 259 264 265
Height
847 847 846 845 845 844 843 843 842 842 841 840 839 839 837 837 835 835 833 832 831 830 830 829 828 828 827 827 827 826 826 826 825 824 823 822 822 822 822 821 821 820 820 819 819 819 819 820 819 820 819 820 823 823 825 825 825 825 824 828 827 826 826 822 823 823 820 818 821 826 825 822 824 831 833 834 833 832 834 834 832 832 832 833 833 835 836 837
847 846 846 845 844 844 843 843 842 841 841 840 839 839 838 837 836 835 833 832 831 830 830 829 828 827 826 826 826 826 826 825 824 823 821 821 821 821 821 821 821 820 819 819 819 819 818 818 818 818 819 820 823 823 824 825 826 825 826 828 824 821 820 819 818 819 820 819 819 823 824 823 821 824 830 829 827 830 832 829 830 831 829 830 833 835 836 836
847 846 846 845 844 844 843 842 842 841 840 840 839 838 838 837 836 835 833 833 831 830 829 828 828 826 826 825 825 826 825 825 824 821 819 820 821 821 821 820 820 819 819 819 818 819 817 817 817 818 819 821 823 824 824 825 826 825 827 825 819 819 819 819 820 819 820 820 820 822 824 825 821 822 827 825 823 826 825 820 825 827 822 823 829 832 834 835
847 846 845 845 844 843 843 842 841 841 840 839 839 838 837 836 835 834 833 833 831 830 828 828 827 826 826 824 825 825 824 826 823 817 817 818 819 820 820 819 819 819 818 818 818 818 817 817 817 818 820 822 825 825 823 825 825 826 825 820 818 822 820 817 819 820 821 822 821 822 827 827 822 824 824 822 822 820 814 810 813 815 812 817 824 828 831 832
847 846 845 844 843 843 842 842 841 840 839 839 838 837 836 835 835 834 833 832 831 830 828 827 826 825 825 824 825 824 826 830 822 815 817 817 818 819 819 819 818 818 818 818 818 818 817 817 818 819 820 822 825 824 823 825 826 825 821 819 821 824 820 817 820 822 824 825 823 824 825 823 822 825 822 821 818 808 803 804 804 805 807 812 819 823 827 829
846 845 845 844 843 842 841 841 840 840 839 838 837 836 835 835 834 833 832 831 830 829 828 827 826 825 825 824 825 824 827 829 819 815 817 817 817 818 818 818 818 818 817 817 817 817 817 818 819 821 821 822 824 824 822 826 827 823 819 821 822 823 820 818 821 824 825 824 823 823 821 820 823 821 819 819 811 800 801 804 804 805 806 810 815 820 823 824
845 845 844 843 842 841 841 840 839 839 838 837 836 835 834 833 833 832 831 830 829 828 827 826 825 825 824 825 825 824 827 823 815 816 817 816 817 817 817 817 817 817 817 817 817 816 817 818 819 822 822 822 824 823 824 826 827 824 819 820 822 825 822 819 823 826 826 823 821 823 821 821 821 818 820 816 803 799 804 805 807 808 808 810 813 816 817 818
844 844 843 842 842 841 840 839 838 838 837 836 835 834 833 832 832 831 830 829 828 827 826 825 824 824 824 825 825 827 827 820 815 816 816 816 817 816 817 817 816 817 816 816 816 815 817 818 820 822 821 822 822 822 826 826 824 823 820 819 823 826 821 821 825 826 826 824 824 826 821 819 818 820 821 809 798 799 802 804 807 808 809 810 811 812 814 816
843 843 842 842 841 840 839 838 837 836 835 835 834 833 832 831 830 829 828 827 826 826 824 824 823 823 824 824 825 827 823 816 815 815 816 816 816 816 816 816 816 816 816 815 815 815 816 819 820 820 819 822 821 822 826 824 820 820 819 819 822 822 820 822 823 823 826 824 825 824 818 818 820 822 813 797 796 798 798 803 805 807 808 808 808 809 811 813
843 842 841 840 839 839 838 837 836 835 834 833 832 832 831 830 829 827 827 826 825 824 823 823 822 822 823 823 826 827 818 814 816 815 815 816 815 816 815 815 815 815 815 815 815 814 815 816 817 818 819 821 822 823 826 823 820 821 822 822 821 820 821 823 821 822 825 822 823 821 815 816 821 824 805 790 798 799 798 802 804 805 805 805 806 807 808 809
842 841 840 839 838 838 836 836 834 834 833 831 831 830 829 828 827 826 825 824 823 822 821 821 821 821 822 822 825 824 815 814 816 814 816 815 815 815 815 815 814 815 815 814 815 815 814 815 816 818 819 820 821 825 826 824 823 824 825 822 820 820 819 821 821 822 822 819 821 820 816 816 822 821 799 790 800 799 798 801 803 804 802 803 804 805 807 807
840 839 839 838 837 836 835 835 833 832 831 830 829 828 828 827 825 824 823 822 821 820 820 819 820 820 821 822 822 818 814 815 815 815 816 815 815 815 815 815 814 815 814 814 815 814 815 815 816 818 820 820 821 825 825 825 827 827 827 821 816 816 815 817 820 821 821 818 819 820 816 811 814 807 788 790 800 799 800 800 801 803 800 801 802 803 805 805
839 838 837 836 836 835 834 833 832 831 830 829 828 827 827 825 824 823 821 820 819 819 819 818 819 819 821 821 816 814 814 815 814 815 815 814 815 815 815 815 814 815 814 814 814 814 816 815 816 818 821 820 822 825 824 827 829 826 827 823 818 815 812 816 821 822 820 819 819 821 812 796 794 791 782 792 798 798 800 798 799 800 800 801 800 802 802 803
838 837 836 835 834 833 832 832 831 830 828 827 826 826 825 824 823 821 820 819 818 818 818 818 819 819 820 818 813 813 814 814 814 814 814 814 815 815 815 815 814 815 814 814 815 815 815 816 817 818 821 823 823 826 825 827 827 825 826 826 825 820 812 815 822 819 817 820 820 821 815 793 783 783 782 790 795 796 796 792 794 796 797 799 798 800 799 800
837 835 835 833 832 831 831 831 830 829 827 826 825 824 824 822 821 819 819 818 817 818 817 818 818 818 820 816 812 813 813 813 813 813 814 814 814 815 815 815 815 815 815 815 815 816 816 816 817 818 823 826 825 825 822 822 824 825 824 821 825 824 812 812 820 819 815 820 821 819 814 794 781 781 784 792 794 795 793 788 788 790 793 796 795 797 797 797
836 835 833 832 831 830 829 829 828 827 826 824 824 823 822 821 819 819 818 817 817 817 817 818 817 818 820 815 812 812 812 812 811 812 812 812 813 814 815 815 816 815 816 816 816 817 817 817 821 824 825 824 823 822 820 821 821 823 824 817 818 821 814 810 818 823 819 818 820 817 810 793 781 780 787 796 795 794 793 787 784 784 787 791 792 793 793 794
835 834 832 831 830 828 828 827 827 825 824 823 822 821 821 820 818 817 817 817 817 816 817 817 816 818 817 813 813 811 809 808 809 810 811 812 813 813 814 815 816 817 816 817 817 818 817 819 825 825 822 824 823 821 825 826 817 817 825 820 815 816 815 810 812 821 823 820 816 815 813 798 783 778 783 791 793 793 791 784 779 778 781 785 787 788 789 790
835 833 831 830 829 827 826 826 825 824 822 822 821 820 820 818 817 817 816 816 816 817 818 817 817 821 817 811 810 807 806 807 808 809 810 811 812 812 813 814 816 817 817 818 818 818 818 820 824 822 821 825 823 821 826 822 811 812 818 816 813 813 815 811 809 815 820 821 816 813 812 800 786 781 777 780 787 788 783 778 773 772 774 778 781 783 784 786
834 832 831 830 828 826 825 825 824 822 820 820 820 819 818 817 816 815 815 816 817 816 817 815 814 817 814 807 806 806 806 807 808 809 810 810 811 812 812 813 815 815 818 820 817 818 820 820 824 823 819 818 815 813 812 808 806 810 812 813 813 811 808 805 808 816 819 819 816 810 806 796 787 783 776 772 779 783 778 773 769 766 768 771 775 777 779 781
833 832 830 829 827 826 825 824 823 821 820 818 818 818 817 818 818 816 815 815 813 810 810 809 807 808 806 804 805 806 806 808 808 808 809 809 810 812 812 813 815 816 818 817 817 821 823 822 821 815 807 805 806 806 806 809 812 815 816 818 816 813 806 799 808 821 822 818 808 801 801 794 786 781 775 771 775 777 772 768 764 761 764 767 769 771 774 775
832 831 829 828 827 825 824 823 821 820 819 818 819 819 819 821 822 820 817 812 807 807 807 806 807 806 802 803 804 804 806 807 806 807 808 808 809 811 811 812 815 816 816 818 821 824 825 822 812 801 798 803 807 809 812 816 819 818 817 818 815 813 807 800 811 822 823 820 806 798 802 794 786 780 771 769 773 771 761 758 757 754 757 760 762 766 768 769
832 830 829 828 826 825 823 822 820 819 819 818 819 819 819 820 821 821 821 815 808 806 807 807 807 805 801 802 803 803 805 805 805 805 806 808 809 810 809 812 814 813 818 822 821 823 825 816 801 797 804 811 815 819 818 817 819 819 818 820 815 809 805 803 816 825 824 821 805 800 805 792 780 777 767 761 765 761 751 750 751 749 751 752 754 759 762 766
831 829 829 827 825 825 823 821 820 818 818 818 818 819 819 820 820 821 822 820 811 805 805 805 804 802 799 800 800 802 804 803 801 801 803 806 807 809 808 809 812 813 818 818 813 820 820 807 801 806 810 811 817 823 821 817 819 818 817 817 809 806 807 803 814 826 822 819 811 808 808 789 773 769 759 755 758 756 749 749 749 747 746 745 748 753 756 760
829 829 828 826 825 824 822 821 819 819 819 818 819 819 819 819 820 821 820 819 813 804 801 801 800 799 796 796 797 798 801 799 798 798 800 801 804 808 805 805 811 814 813 809 809 812 804 803 814 817 812 809 814 821 821 816 814 815 816 812 802 802 808 805 813 821 815 816 821 814 795 770 761 760 753 753 760 758 753 752 749 744 743 743 745 748 751 752
828 828 827 825 825 822 822 821 819 820 819 818 820 819 819 819 819 821 820 818 814 804 800 798 797 795 792 794 795 796 799 797 795 796 798 798 800 804 805 805 808 807 805 808 814 810 801 809 817 814 815 814 811 814 815 811 809 811 811 805 800 801 806 811 819 820 809 808 817 815 791 761 753 758 751 751 758 756 754 753 745 737 737 743 744 744 747 748
827 826 826 825 824 822 821 819 819 820 818 819 820 818 820 819 820 821 819 821 814 800 797 795 792 790 789 793 796 796 798 796 794 796 797 798 798 799 803 806 806 805 806 811 814 808 806 817 817 810 814 814 811 810 808 809 809 808 807 805 805 806 810 816 821 819 808 804 812 817 804 776 757 752 744 745 751 748 747 745 738 732 730 735 741 741 744 746
825 825 825 824 823 822 821 820 820 819 818 820 818 819 820 818 821 820 819 824 808 787 790 794 790 788 788 794 795 794 796 794 794 797 797 797 797 797 799 801 805 808 811 812 810 805 807 817 819 812 811 813 811 805 802 807 807 805 812 814 810 811 816 818 819 817 809 810 813 811 811 796 768 751 740 738 746 746 741 738 733 730 725 725 733 738 740 741
824 824 823 823 823 822 821 820 819 818 819 818 817 819 819 819 822 818 823 828 800 776 783 790 789 788 789 795 795 793 796 793 792 796 798 798 798 798 798 796 798 803 809 808 801 801 805 810 812 811 813 810 804 799 800 802 802 809 821 822 816 817 819 818 818 815 815 821 813 801 810 802 763 745 747 745 746 746 740 734 728 725 722 720 726 733 735 736
823 822 822 823 822 821 821 819 819 818 818 817 818 818 817 821 820 818 834 830 789 771 781 785 788 790 791 796 796 795 797 795 794 796 798 799 797 799 800 799 799 802 808 806 796 798 807 811 809 806 806 801 798 808 812 803 801 817 827 822 821 824 822 822 819 815 821 825 808 794 804 796 750 730 749 758 753 745 735 728 722 718 718 719 723 729 732 734
821 821 821 821 821 821 819 818 818 817 817 817 817 817 817 819 818 826 841 819 780 776 786 785 787 789 791 796 795 796 796 795 797 799 799 800 798 800 802 802 802 802 806 808 802 803 812 819 816 806 801 800 806 821 825 817 814 822 822 815 818 822 822 825 820 818 823 809 789 780 785 790 759 726 733 743 738 731 725 722 719 715 716 718 721 726 728 731
819 819 820 820 820 820 818 819 817 816 817 816 816 818 817 818 824 831 824 795 778 784 785 786 790 788 789 790 789 793 795 795 798 798 798 800 800 801 802 801 802 805 807 806 802 804 811 814 809 805 806 807 809 817 825 828 825 820 812 806 811 812 814 821 821 825 821 791 775 777 776 784 766 729 721 722 718 719 717 716 714 712 713 713 717 722 725 729
816 817 817 817 818 818 818 818 816 816 817 815 817 816 814 823 826 817 802 785 781 781 776 782 790 788 789 788 786 792 795 793 795 795 794 798 799 797 794 789 792 799 801 798 796 798 800 801 800 803 810 808 800 805 819 826 823 816 807 806 811 809 809 811 808 812 804 779 780 790 784 777 750 719 717 719 716 717 715 713 710 708 710 708 712 720 724 728
813 814 814 815 815 816 816 816 815 817 815 815 818 813 817 826 807 788 789 785 776 775 775 780 787 789 791 788 788 793 793 791 793 795 793 796 798 794 788 786 788 790 788 791 796 795 791 794 801 802 800 800 792 790 799 806 810 808 799 801 806 807 812 807 793 792 786 772 782 796 789 769 737 712 710 712 709 709 711 714 711 709 709 708 713 721 724 728
809 811 811 811 812 813 814 815 815 814 814 816 815 813 822 817 785 771 780 775 770 777 781 784 788 791 790 788 789 790 788 787 791 795 794 797 799 793 787 788 790 789 788 792 794 792 787 779 783 787 783 785 785 777 777 786 799 801 791 793 795 792 797 791 778 776 774 767 779 796 782 748 724 709 700 700 702 702 707 711 712 712 714 716 721 724 724 726
806 807 807 807 808 810 811 813 813 813 815 814 811 814 813 792 770 770 771 766 771 778 783 788 788 788 788 788 790 788 781 782 790 795 794 793 790 784 779 778 783 787 788 791 788 790 789 770 768 782 782 781 782 778 779 784 793 800 797 797 793 781 777 781 782 786 789 783 778 781 760 720 705 705 701 704 705 705 710 709 710 714 714 719 724 721 722 723
803 803 803 802 801 804 807 810 810 812 812 810 811 810 789 763 760 767 761 760 768 772 781 787 784 785 787 784 787 787 781 783 790 792 790 790 783 777 775 770 774 779 776 778 780 782 782 772 777 790 787 789 792 787 788 785 784 797 800 793 788 783 775 778 791 800 806 794 764 750 741 714 702 702 700 705 706 708 715 710 708 712 710 715 718 716 718 719
798 797 796 793 793 798 802 805 808 811 810 807 804 792 770 755 757 760 758 762 765 765 772 775 771 775 777 774 777 782 782 783 788 785 782 785 775 766 772 768 765 770 762 761 767 767 768 769 779 788 784 794 805 796 793 792 787 792 792 782 782 788 783 781 789 793 796 790 758 736 734 717 706 707 703 706 709 711 713 707 706 710 710 712 712 710 713 713
790 791 788 784 786 792 798 804 807 809 811 808 797 778 764 760 758 757 759 761 761 762 765 764 761 764 766 765 768 777 781 776 781 782 775 775 763 750 759 762 760 762 755 755 762 762 765 766 777 793 791 794 804 794 787 793 794 791 788 784 780 780 782 786 792 787 783 784 760 734 727 709 694 699 699 700 706 707 706 704 705 707 709 710 709 708 710 711
786 788 782 776 781 789 795 800 804 808 810 805 792 773 761 758 757 758 756 754 755 759 760 757 756 758 759 759 760 770 775 767 771 776 766 763 757 744 747 750 751 755 752 756 761 758 764 764 769 794 802 794 794 790 780 782 793 796 792 789 782 775 774 777 782 776 769 772 760 741 727 695 671 678 684 685 693 696 698 701 702 703 703 705 705 704 706 707
783 784 777 771 778 787 792 798 803 807 802 789 777 764 757 756 756 755 752 752 753 754 753 751 753 755 755 758 758 760 765 762 762 765 758 754 750 743 743 742 743 752 754 758 758 756 765 765 763 788 806 792 778 773 765 760 772 786 784 781 781 779 779 779 776 771 766 766 762 757 736 686 658 669 675 677 684 684 688 694 696 699 699 698 699 699 700 702
780 780 773 770 775 781 789 797 800 800 793 779 766 757 755 755 753 752 753 755 753 750 751 751 751 750 749 754 757 756 760 762 760 759 754 749 744 738 737 735 737 750 759 764 762 757 762 763 759 774 787 775 758 756 760 755 754 762 764 764 765 767 774 777 773 771 774 765 751 755 742 687 656 669 674 676 683 682 685 690 691 695 696 694 696 695 696 699
777 774 769 770 774 776 784 790 788 789 785 772 759 753 753 753 750 750 753 756 756 753 754 753 750 748 745 745 749 752 756 757 756 756 749 742 739 732 728 730 734 741 748 756 757 752 753 757 758 758 757 757 761 768 774 770 760 758 757 754 753 756 759 761 760 762 772 767 750 758 752 691 652 666 676 678 683 682 684 687 686 689 690 690 692 693 695 697
772 770 769 771 771 772 779 784 783 783 778 764 755 753 753 752 751 750 750 753 755 753 753 750 746 746 743 742 745 748 749 747 745 747 746 741 733 725 725 732 736 738 739 745 750 752 755 756 758 757 748 749 765 774 776 774 766 760 757 754 753 753 748 748 750 751 755 754 747 762 758 699 656 666 678 678 682 683 685 687 686 685 686 687 691 693 695 696
767 770 773 773 771 770 772 774 774 775 772 765 761 757 753 751 750 749 748 748 748 747 746 743 740 740 739 740 742 741 742 742 737 736 739 736 728 725 727 729 733 733 732 734 739 745 752 753 756 764 761 754 758 760 762 770 767 756 752 754 753 750 749 751 756 760 755 739 733 747 740 694 663 671 680 681 684 683 686 690 690 688 686 688 691 692 692 693
766 770 773 773 771 768 764 761 763 766 767 765 761 756 754 752 747 744 744 744 742 741 740 738 738 738 737 739 740 737 736 735 732 732 733 729 727 730 732 729 727 726 724 726 729 732 739 743 746 758 763 757 748 737 734 748 759 754 750 752 750 749 750 749 752 758 748 728 727 734 716 684 670 672 673 676 680 680 684 690 693 692 690 689 690 689 687 689
763 766 772 776 774 768 763 760 762 763 763 763 761 756 755 753 746 743 744 743 741 741 741 741 741 741 740 741 741 737 735 732 731 733 731 726 725 731 738 736 728 726 728 730 730 732 735 733 730 734 736 734 729 720 716 728 742 745 745 746 744 742 741 742 743 739 729 725 728 719 701 691 689 680 670 666 668 671 675 679 684 686 687 689 689 686 683 684
758 756 762 770 770 768 768 767 766 763 759 759 758 753 752 751 747 747 746 741 738 740 743 743 743 742 740 740 738 733 729 730 733 733 727 722 724 731 741 741 734 732 734 734 733 735 735 731 725 721 717 715 713 709 709 719 726 728 733 737 737 736 739 741 733 719 718 729 723 702 695 703 701 687 672 661 660 665 668 670 672 673 676 681 682 681 681 682
752 746 746 749 750 755 761 759 758 761 758 756 754 750 749 750 749 747 744 740 739 740 742 742 740 738 732 730 732 731 727 730 733 730 724 722 725 730 735 737 736 736 735 736 737 735 732 728 722 718 715 711 709 705 703 709 715 717 720 725 727 729 733 732 722 713 715 717 704 690 694 700 694 681 667 657 658 662 663 663 664 666 669 672 674 674 674 676
748 743 742 740 736 737 741 740 744 752 754 754 752 748 747 746 742 738 736 741 744 741 739 737 733 730 727 725 728 732 731 731 729 725 723 723 725 728 729 729 733 739 737 735 737 735 731 724 718 717 717 714 712 708 703 707 715 716 715 718 718 715 715 717 717 714 710 701 693 692 696 693 682 669 660 657 657 657 658 659 659 660 661 665 668 666 663 664
746 741 741 740 735 733 733 733 738 744 747 749 747 742 741 740 734 729 727 732 737 736 736 736 727 720 721 723 728 731 727 724 722 716 716 720 723 727 727 722 725 738 742 736 734 735 731 723 716 716 719 716 711 706 704 708 713 713 715 716 710 701 701 708 710 708 708 705 700 702 705 695 675 661 659 660 656 656 659 657 654 651 650 657 662 658 654 655
746 741 740 739 733 730 730 730 732 735 737 740 739 733 731 729 726 725 721 717 720 722 725 725 719 715 718 723 728 727 718 714 713 707 705 713 719 721 722 719 720 733 741 738 734 734 732 725 719 720 721 716 708 705 706 709 715 721 721 710 696 689 691 692 689 690 698 703 702 705 705 690 667 656 657 656 653 656 656 651 646 643 644 653 657 652 648 648
746 743 741 739 732 726 726 726 726 726 724 723 724 720 717 715 716 720 720 712 709 709 709 710 711 713 718 721 718 710 702 700 700 698 700 708 714 714 716 718 718 724 733 735 734 733 731 726 721 723 724 716 708 707 709 715 726 726 709 687 678 680 682 677 673 676 682 687 692 692 683 668 657 655 655 652 651 652 648 643 640 638 643 650 649 644 642 640